EW8669 Weather Reports


Display with metric or nautical units.
time (UTC)temp
F
wind
direction
speed
MPH
gust
MPH
rain 1hr
in
rain 24hr
in
rain mn
in
humidity
%
barometer
mb
20260508214025 88 117 14.0 18.0 0.00 0.00 0.00 69 1010.8
20260508213522 89 104 12.0 18.0 0.00 0.00 0.00 67 1010.8
20260508213040 91 99 12.0 18.0 0.00 0.00 0.00 65 1010.8
20260508212522 92 103 5.0 12.0 0.00 0.00 0.00 62 1010.8
20260508212021 92 139 2.0 5.0 0.00 0.00 0.00 58 1010.6
20260508211538 92 135 0.0 8.0 0.00 0.00 0.00 53 1010.6
20260508211019 91 135 3.0 8.0 0.00 0.00 0.00 52 1010.8
20260508210521 92 149 1.0 5.0 0.00 0.00 0.00 52 1010.9
20260508210038 92 129 2.0 5.0 0.00 0.00 0.00 52 1010.7
20260508205521 92 209 0.0 7.0 0.00 0.00 0.00 53 1010.8
20260508205022 91 212 3.0 7.0 0.00 0.00 0.00 52 1010.9
20260508204537 92 236 4.0 7.0 0.00 0.00 0.00 52 1011.0
20260508204020 92 168 2.0 5.0 0.00 0.00 0.00 53 1011.0
20260508203521 92 261 1.0 3.0 0.00 0.00 0.00 52 1011.1
20260508203041 91 0 0.0 6.0 0.00 0.00 0.00 54 1011.3
20260508202520 91 265 1.0 6.0 0.00 0.00 0.00 54 1011.3
20260508202020 90 254 2.0 6.0 0.00 0.00 0.00 54 1011.3
20260508201540 90 184 2.0 6.0 0.00 0.00 0.00 55 1011.4
20260508201020 90 184 2.0 6.0 0.00 0.00 0.00 56 1011.5
20260508200519 90 155 3.0 6.0 0.00 0.00 0.00 55 1011.6
20260508200043 90 157 3.0 7.0 0.00 0.00 0.00 55 1011.6
20260508195519 90 133 3.0 7.0 0.00 0.00 0.00 58 1011.6
20260508195020 90 147 2.0 6.0 0.00 0.00 0.00 57 1011.8
20260508194537 90 187 3.0 6.0 0.00 0.00 0.00 56 1011.8
20260508194023 90 211 4.0 6.0 0.00 0.00 0.00 57 1011.9
20260508193519 90 173 4.0 6.0 0.00 0.00 0.00 56 1011.9
20260508193057 90 180 4.0 6.0 0.00 0.00 0.00 57 1012.0
20260508192520 90 165 4.0 6.0 0.00 0.00 0.00 58 1012.1
20260508192020 89 165 4.0 5.0 0.00 0.00 0.00 57 1012.2
20260508191549 89 170 3.0 5.0 0.00 0.00 0.00 57 1012.3
20260508191021 89 189 2.0 5.0 0.00 0.00 0.00 58 1012.4
20260508190520 88 240 3.0 7.0 0.00 0.00 0.00 59 1012.5
20260508190053 88 240 4.0 9.0 0.00 0.00 0.00 61 1012.7
20260508185524 88 219 4.0 9.0 0.00 0.00 0.00 61 1012.8
20260508185019 88 227 5.0 9.0 0.00 0.00 0.00 61 1012.8
20260508184540 88 220 2.0 7.0 0.00 0.00 0.00 61 1012.9
20260508184023 88 336 3.0 10.0 0.00 0.00 0.00 65 1013.1
20260508183519 87 257 4.0 10.0 0.00 0.00 0.00 63 1013.3
20260508183052 87 244 5.0 10.0 0.00 0.00 0.00 63 1013.3
20260508182520 87 268 6.0 10.0 0.00 0.00 0.00 62 1013.2
20260508182020 87 230 4.0 9.0 0.00 0.00 0.00 62 1013.3
20260508181541 87 229 3.0 11.0 0.00 0.00 0.00 62 1013.4
20260508181022 86 253 6.0 11.0 0.00 0.00 0.00 65 1013.6
20260508180521 87 225 7.0 11.0 0.00 0.00 0.00 63 1013.5
20260508180056 87 236 3.0 10.0 0.00 0.00 0.00 64 1013.6
20260508175520 86 265 6.0 10.0 0.00 0.00 0.00 66 1013.6
20260508175021 86 219 3.0 8.0 0.00 0.00 0.00 64 1013.7
20260508174558 86 249 5.0 8.0 0.00 0.00 0.00 64 1013.7
20260508174019 86 254 4.0 8.0 0.00 0.00 0.00 65 1013.7
20260508173521 86 236 4.0 9.0 0.00 0.00 0.00 66 1013.8
20260508173043 86 234 5.0 9.0 0.00 0.00 0.00 65 1013.9
20260508172522 85 239 2.0 10.0 0.00 0.00 0.00 67 1014.0
20260508172020 85 281 4.0 12.0 0.00 0.00 0.00 67 1013.9
20260508171539 85 258 5.0 12.0 0.00 0.00 0.00 68 1014.1
20260508171026 85 252 8.0 12.0 0.00 0.00 0.00 68 1014.1
20260508170522 85 246 7.0 13.0 0.00 0.00 0.00 67 1014.2
20260508170038 85 253 8.0 13.0 0.00 0.00 0.00 68 1014.2
20260508165518 85 229 8.0 12.0 0.00 0.00 0.00 68 1014.3
20260508165021 85 248 8.0 15.0 0.00 0.00 0.00 68 1014.4
20260508164549 85 234 3.0 15.0 0.00 0.00 0.00 69 1014.6
20260508164021 84 216 3.0 10.0 0.00 0.00 0.00 71 1014.8
20260508163521 84 244 5.0 10.0 0.00 0.00 0.00 69 1014.8
20260508163040 84 263 6.0 10.0 0.00 0.00 0.00 69 1015.0
20260508162520 84 233 3.0 11.0 0.00 0.00 0.00 70 1015.0
20260508162021 84 261 6.0 12.0 0.00 0.00 0.00 70 1015.1
20260508161541 84 239 5.0 12.0 0.00 0.00 0.00 70 1015.2
20260508161021 84 254 5.0 11.0 0.00 0.00 0.00 71 1015.3
20260508160521 83 259 4.0 11.0 0.00 0.00 0.00 72 1015.3
20260508160041 83 266 3.0 11.0 0.00 0.00 0.00 73 1015.3
20260508155523 83 251 4.0 10.0 0.00 0.00 0.00 72 1015.3
20260508155023 83 254 4.0 14.0 0.00 0.00 0.00 73 1015.3
20260508154542 83 278 8.0 14.0 0.00 0.00 0.00 73 1015.4
20260508154021 83 246 5.0 9.0 0.00 0.00 0.00 73 1015.4
20260508153523 83 238 5.0 9.0 0.00 0.00 0.00 73 1015.3
20260508153048 83 269 5.0 10.0 0.00 0.00 0.00 72 1015.4
20260508152523 83 275 5.0 10.0 0.00 0.00 0.00 72 1015.5
20260508152023 83 322 6.0 10.0 0.00 0.00 0.00 73 1015.6
20260508151541 83 245 5.0 10.0 0.00 0.00 0.00 76 1015.4
20260508151025 83 286 4.0 14.0 0.00 0.00 0.00 74 1015.4
20260508150523 82 238 7.0 14.0 0.00 0.00 0.00 72 1015.6
20260508150043 83 261 6.0 12.0 0.00 0.00 0.00 73 1015.7
20260508145524 82 319 5.0 11.0 0.00 0.00 0.00 74 1015.5
20260508145021 82 290 6.0 10.0 0.00 0.00 0.00 74 1015.6
20260508144542 82 293 3.0 12.0 0.00 0.00 0.00 75 1015.6
20260508144023 82 293 7.0 12.0 0.00 0.00 0.00 75 1015.5
20260508143522 82 250 4.0 11.0 0.00 0.00 0.00 78 1015.5
20260508143047 82 291 2.0 11.0 0.00 0.00 0.00 79 1015.4
20260508142522 81 294 3.0 11.0 0.00 0.00 0.00 80 1015.4
20260508142022 81 298 4.0 10.0 0.00 0.00 0.00 82 1015.4
20260508141550 80 5 3.0 10.0 0.00 0.00 0.00 82 1015.4
20260508141022 80 275 4.0 10.0 0.00 0.00 0.00 83 1015.5
20260508140521 80 265 5.0 10.0 0.00 0.00 0.00 83 1015.4
20260508140040 80 279 2.0 9.0 0.00 0.00 0.00 84 1015.5
20260508135521 79 16 5.0 10.0 0.00 0.00 0.00 84 1015.6
20260508135024 79 267 4.0 10.0 0.00 0.00 0.00 86 1015.5
20260508134542 79 275 2.0 10.0 0.00 0.00 0.00 87 1015.5
20260508134021 78 298 5.0 10.0 0.00 0.00 0.00 88 1015.5
20260508133521 78 250 5.0 9.0 0.00 0.00 0.00 88 1015.4
20260508133037 78 238 5.0 10.0 0.00 0.00 0.00 88 1015.4
20260508132526 78 244 7.0 10.0 0.00 0.00 0.00 89 1015.4
20260508132021 77 193 3.0 8.0 0.00 0.00 0.00 89 1015.4
20260508131535 77 306 4.0 8.0 0.00 0.00 0.00 91 1015.4
20260508131021 77 258 4.0 8.0 0.00 0.00 0.00 91 1015.4
20260508130520 76 271 2.0 9.0 0.00 0.00 0.00 92 1015.3
20260508130042 76 251 4.0 9.0 0.00 0.00 0.00 92 1015.4
20260508125521 76 231 4.0 7.0 0.00 0.00 0.00 92 1015.3
20260508125026 76 229 3.0 6.0 0.00 0.00 0.00 92 1015.3
20260508124540 75 0 0.0 4.0 0.00 0.00 0.00 93 1015.1
20260508124023 75 99 1.0 4.0 0.00 0.00 0.00 93 1015.1
20260508123524 75 164 2.0 4.0 0.00 0.00 0.00 93 1015.1
20260508123042 74 165 1.0 4.0 0.00 0.00 0.00 93 1015.0
20260508122522 74 150 1.0 4.0 0.00 0.00 0.00 93 1015.0
20260508122021 74 150 1.0 4.0 0.00 0.00 0.00 93 1015.0
20260508121540 74 178 1.0 3.0 0.00 0.00 0.00 93 1015.0
20260508121021 73 178 1.0 3.0 0.00 0.00 0.00 94 1015.1
20260508120521 73 0 0.0 3.0 0.00 0.00 0.00 94 1015.0
20260508120053 73 177 1.0 3.0 0.00 0.00 0.00 94 1014.9
20260508115520 73 176 2.0 3.0 0.00 0.00 0.00 94 1014.8
20260508115020 73 177 0.0 2.0 0.00 0.00 0.00 94 1014.9
20260508114554 73 0 0.0 3.0 0.00 0.00 0.00 94 1014.7
20260508114023 72 0 1.0 4.0 0.00 0.00 0.00 94 1014.6
20260508113524 72 216 2.0 4.0 0.00 0.00 0.00 94 1014.5
20260508113043 72 221 2.0 5.0 0.00 0.00 0.00 94 1014.5
20260508112522 72 224 3.0 5.0 0.00 0.00 0.00 94 1014.4
20260508112020 72 223 3.0 5.0 0.00 0.00 0.00 94 1014.2
20260508111542 72 221 3.0 5.0 0.00 0.00 0.00 94 1014.2
20260508111024 72 214 3.0 4.0 0.00 0.00 0.00 94 1014.2
20260508110522 72 213 3.0 4.0 0.00 0.00 0.00 94 1014.1
20260508110040 72 222 2.0 4.0 0.00 0.00 0.00 94 1014.0
20260508105521 71 274 0.0 1.0 0.00 0.00 0.00 93 1013.9
20260508105021 71 0 0.0 0.0 0.00 0.00 0.00 93 1013.8
20260508104547 71 0 0.0 0.0 0.00 0.00 0.00 93 1013.7
20260508104027 71 0 0.0 0.0 0.00 0.00 0.00 93 1013.6
20260508103521 71 0 0.0 0.0 0.00 0.00 0.00 93 1013.7
20260508103055 71 0 0.0 0.0 0.00 0.00 0.00 92 1013.7
20260508102522 71 0 0.0 0.0 0.00 0.00 0.00 92 1013.6
20260508102021 71 0 0.0 0.0 0.00 0.00 0.00 92 1013.5
20260508101550 71 0 0.0 0.0 0.00 0.00 0.00 92 1013.5
20260508101026 71 0 0.0 0.0 0.00 0.00 0.00 92 1013.4
20260508100520 71 0 0.0 0.0 0.00 0.00 0.00 92 1013.2
20260508100041 71 0 0.0 0.0 0.00 0.00 0.00 92 1013.2
20260508095521 71 0 0.0 0.0 0.00 0.00 0.00 92 1013.2
20260508095020 71 0 0.0 0.0 0.00 0.00 0.00 91 1013.1
20260508094540 71 0 0.0 0.0 0.00 0.00 0.00 91 1013.0
20260508094023 71 0 0.0 0.0 0.00 0.00 0.00 92 1013.0
20260508093521 71 0 0.0 0.0 0.00 0.00 0.00 91 1013.0
20260508093040 71 0 0.0 0.0 0.00 0.00 0.00 91 1013.0
20260508092522 72 0 0.0 0.0 0.00 0.00 0.00 91 1013.0
20260508092021 72 0 0.0 0.0 0.00 0.00 0.00 91 1012.9
20260508091542 72 0 0.0 0.0 0.00 0.00 0.00 90 1013.0
20260508091021 72 0 0.0 0.0 0.00 0.00 0.00 90 1013.0
20260508090523 72 0 0.0 0.0 0.00 0.00 0.00 90 1013.0
20260508090050 72 0 0.0 0.0 0.00 0.00 0.00 90 1012.9
20260508085524 72 0 0.0 0.0 0.00 0.00 0.00 90 1012.9
20260508085021 72 0 0.0 0.0 0.00 0.00 0.00 90 1012.9
20260508084540 72 0 0.0 0.0 0.00 0.00 0.00 90 1012.9
20260508084021 72 0 0.0 0.0 0.00 0.00 0.00 90 1013.0
20260508083522 72 0 0.0 0.0 0.00 0.00 0.00 90 1013.0
20260508083042 72 0 0.0 0.0 0.00 0.00 0.00 89 1012.9
20260508082524 73 0 0.0 0.0 0.00 0.00 0.00 89 1012.9
20260508082021 73 0 0.0 0.0 0.00 0.00 0.00 89 1013.0
20260508081536 73 0 0.0 0.0 0.00 0.00 0.00 89 1012.9
20260508081023 73 0 0.0 0.0 0.00 0.00 0.00 89 1013.0
20260508080521 73 0 0.0 0.0 0.00 0.00 0.00 89 1013.1
20260508080035 73 0 0.0 0.0 0.00 0.00 0.00 88 1013.0
20260508075521 73 0 0.0 0.0 0.00 0.00 0.00 88 1013.0
20260508075021 73 0 0.0 0.0 0.00 0.00 0.00 88 1013.0
20260508074543 73 0 0.0 0.0 0.00 0.00 0.00 88 1012.9
20260508074022 73 0 0.0 0.0 0.00 0.00 0.00 88 1013.1
20260508073523 73 0 0.0 0.0 0.00 0.00 0.00 88 1013.0
20260508073043 73 0 0.0 0.0 0.00 0.00 0.00 88 1013.0
20260508072521 73 0 0.0 0.0 0.00 0.00 0.00 87 1013.0
20260508072021 73 0 0.0 0.0 0.00 0.00 0.00 87 1013.0
20260508071543 73 0 0.0 0.0 0.00 0.00 0.00 87 1013.0
20260508071022 73 0 0.0 0.0 0.00 0.00 0.00 87 1013.0
20260508070521 73 0 0.0 0.0 0.00 0.00 0.00 86 1013.1
20260508070038 73 0 0.0 0.0 0.00 0.00 0.00 86 1013.0
20260508065521 74 0 0.0 0.0 0.00 0.00 0.00 86 1013.2
20260508065024 74 0 0.0 0.0 0.00 0.00 0.00 85 1013.0
20260508064540 74 0 0.0 0.0 0.00 0.00 0.00 85 1013.0
20260508064022 74 0 0.0 0.0 0.00 0.00 0.00 84 1013.0
20260508063522 74 0 0.0 0.0 0.00 0.00 0.00 84 1013.1
20260508063057 74 0 0.0 0.0 0.00 0.00 0.00 84 1013.2
20260508062526 74 0 0.0 0.0 0.00 0.00 0.00 83 1013.1
20260508062023 74 0 0.0 0.0 0.00 0.00 0.00 83 1013.2
20260508061542 74 0 0.0 0.0 0.00 0.00 0.00 83 1013.1
20260508061021 74 0 0.0 0.0 0.00 0.00 0.00 83 1013.2
20260508060521 74 0 0.0 0.0 0.00 0.00 0.00 82 1013.3
20260508060042 75 0 0.0 0.0 0.00 0.00 0.00 82 1013.4
20260508055521 75 0 0.0 0.0 0.00 0.00 0.00 82 1013.3
20260508055021 75 0 0.0 1.0 0.00 0.00 0.00 82 1013.3
20260508054542 75 0 0.0 1.0 0.00 0.00 0.00 81 1013.3
20260508054021 75 0 0.0 1.0 0.00 0.00 0.00 81 1013.4
20260508053522 75 0 0.0 3.0 0.00 0.00 0.00 81 1013.5
20260508053042 75 0 0.0 3.0 0.00 0.00 0.00 80 1013.4
20260508052523 75 0 0.0 4.0 0.00 0.00 0.00 80 1013.4
20260508052021 76 280 1.0 4.0 0.00 0.00 0.00 80 1013.5
20260508051540 76 280 2.0 4.0 0.00 0.00 0.00 79 1013.6
20260508051021 76 305 2.0 4.0 0.00 0.00 0.00 79 1013.6
20260508050521 76 284 1.0 4.0 0.00 0.00 0.00 79 1013.5
20260508050043 76 267 2.0 5.0 0.00 0.00 0.00 79 1013.6
20260508045520 76 284 0.0 5.0 0.00 0.00 0.00 78 1013.6
20260508045022 76 269 2.0 6.0 0.00 0.00 0.00 78 1013.6
20260508044540 76 257 3.0 6.0 0.00 0.00 0.00 78 1013.6
20260508044020 76 275 2.0 7.0 0.00 0.00 0.00 77 1013.7
20260508043520 77 284 2.0 8.0 0.00 0.00 0.00 77 1013.7
20260508043054 77 287 2.0 9.0 0.00 0.00 0.00 76 1013.7
20260508042522 77 274 3.0 9.0 0.00 0.00 0.00 76 1013.7
20260508042024 77 304 1.0 4.0 0.00 0.00 0.00 75 1013.6
20260508041548 77 306 2.0 5.0 0.00 0.00 0.00 75 1013.7
20260508041021 77 288 1.0 6.0 0.00 0.00 0.00 74 1013.6
20260508040520 77 298 2.0 6.0 0.00 0.00 0.00 74 1013.7
20260508040039 78 284 2.0 7.0 0.00 0.00 0.00 73 1013.5
20260508035521 78 275 2.0 7.0 0.00 0.00 0.00 73 1013.5
20260508035022 78 274 2.0 7.0 0.00 0.00 0.00 72 1013.6
20260508034542 78 277 2.0 9.0 0.00 0.00 0.00 72 1013.5
20260508034020 78 296 3.0 9.0 0.00 0.00 0.00 72 1013.5
20260508033520 78 288 3.0 7.0 0.00 0.00 0.00 71 1013.4
20260508033041 79 284 2.0 9.0 0.00 0.00 0.00 71 1013.4
20260508032523 79 271 3.0 9.0 0.00 0.00 0.00 70 1013.3
20260508032022 79 264 3.0 8.0 0.00 0.00 0.00 70 1013.3
20260508031541 79 288 3.0 8.0 0.00 0.00 0.00 69 1013.4
20260508031021 79 262 3.0 8.0 0.00 0.00 0.00 69 1013.3
20260508030522 79 271 5.0 9.0 0.00 0.00 0.00 68 1013.3
20260508030043 80 294 4.0 9.0 0.00 0.00 0.00 67 1013.4
20260508025522 80 257 4.0 8.0 0.00 0.00 0.00 66 1013.4
20260508025025 80 277 3.0 6.0 0.00 0.00 0.00 65 1013.3
20260508024535 80 275 2.0 5.0 0.00 0.00 0.00 64 1013.3
20260508024023 80 276 2.0 7.0 0.00 0.00 0.00 63 1013.3
20260508023521 80 289 3.0 7.0 0.00 0.00 0.00 63 1013.2
20260508023042 81 273 3.0 7.0 0.00 0.00 0.00 62 1013.1
20260508022520 81 268 2.0 7.0 0.00 0.00 0.00 61 1013.2
20260508022022 81 273 3.0 8.0 0.00 0.00 0.00 60 1013.3
20260508021546 81 278 4.0 8.0 0.00 0.00 0.00 59 1013.3
20260508021021 81 267 4.0 7.0 0.00 0.00 0.00 58 1013.2
20260508020521 81 270 2.0 6.0 0.00 0.00 0.00 56 1013.3
20260508020047 81 283 2.0 7.0 0.00 0.00 0.00 55 1013.3
20260508015521 82 274 3.0 8.0 0.00 0.00 0.00 54 1013.2
20260508015021 82 270 3.0 8.0 0.00 0.00 0.00 53 1013.2
20260508014541 82 277 2.0 8.0 0.00 0.00 0.00 52 1013.1
20260508014021 82 275 2.0 8.0 0.00 0.00 0.00 52 1013.2
20260508013520 82 263 3.0 6.0 0.00 0.00 0.00 51 1013.0
20260508013052 82 267 1.0 7.0 0.00 0.00 0.00 50 1013.0
20260508012524 83 261 2.0 7.0 0.00 0.00 0.00 49 1012.8
20260508012022 83 261 3.0 7.0 0.00 0.00 0.00 49 1012.8
20260508011544 83 282 2.0 4.0 0.00 0.00 0.00 48 1012.8
20260508011022 83 272 1.0 6.0 0.00 0.00 0.00 48 1012.9
20260508010521 83 295 2.0 9.0 0.00 0.00 0.00 48 1012.9
20260508010041 83 310 1.0 9.0 0.00 0.00 0.00 47 1013.0
20260508005520 83 284 4.0 9.0 0.00 0.00 0.00 47 1012.7
20260508005022 84 309 2.0 8.0 0.00 0.00 0.00 49 1012.7
20260508004535 84 285 3.0 8.0 0.00 0.00 0.00 48 1012.7
20260508004022 84 296 3.0 8.0 0.00 0.00 0.00 46 1012.6
20260508003525 84 290 1.0 4.0 0.00 0.00 0.00 45 1012.5
20260508003042 85 274 1.0 4.0 0.00 0.00 0.00 44 1012.4
20260508002522 85 290 1.0 4.0 0.00 0.00 0.00 44 1012.4
20260508002023 85 293 1.0 8.0 0.00 0.00 0.00 45 1012.4
20260508001606 86 288 1.0 8.0 0.00 0.00 0.00 43 1012.3
20260508001021 86 276 3.0 7.0 0.00 0.00 0.00 42 1012.3
20260508000521 86 275 2.0 7.0 0.00 0.00 0.00 43 1012.2
20260508000040 87 289 2.0 7.0 0.00 0.00 0.00 42 1012.2
20260507235521 87 275 2.0 7.0 0.00 0.00 0.00 42 1012.2
20260507235021 88 290 1.0 10.0 0.00 0.00 0.00 42 1012.2
20260507234540 88 287 3.0 10.0 0.00 0.00 0.00 41 1012.2
20260507234053 88 275 3.0 8.0 0.00 0.00 0.00 42 1012.1
20260507233521 89 287 3.0 8.0 0.00 0.00 0.00 42 1012.1
20260507233037 89 282 3.0 9.0 0.00 0.00 0.00 43 1012.1
20260507232521 89 289 3.0 9.0 0.00 0.00 0.00 44 1012.1
20260507232020 89 265 4.0 12.0 0.00 0.00 0.00 43 1012.1
20260507231545 90 288 3.0 12.0 0.00 0.00 0.00 44 1012.1
20260507231021 90 293 3.0 17.0 0.00 0.00 0.00 44 1011.9
20260507230521 90 296 6.0 17.0 0.00 0.00 0.00 45 1012.0
20260507230041 91 265 8.0 16.0 0.00 0.00 0.00 46 1012.0
20260507225521 92 263 6.0 10.0 0.00 0.00 0.00 44 1011.9
20260507225021 92 238 3.0 7.0 0.00 0.00 0.00 43 1011.8
20260507224544 91 252 4.0 8.0 0.00 0.00 0.00 42 1011.8
20260507224021 91 262 3.0 10.0 0.00 0.00 0.00 44 1011.8
20260507223520 91 240 6.0 10.0 0.00 0.00 0.00 46 1011.8
20260507223040 92 264 6.0 10.0 0.00 0.00 0.00 45 1011.9
20260507222522 92 275 6.0 9.0 0.00 0.00 0.00 48 1011.9
20260507222020 92 254 4.0 12.0 0.00 0.00 0.00 45 1011.9
20260507221536 92 236 5.0 12.0 0.00 0.00 0.00 44 1012.0
20260507221022 92 270 7.0 12.0 0.00 0.00 0.00 43 1012.0
20260507220521 92 242 8.0 10.0 0.00 0.00 0.00 43 1012.0
20260507220044 92 298 4.0 9.0 0.00 0.00 0.00 43 1012.0
20260507215524 92 235 5.0 9.0 0.00 0.00 0.00 41 1012.0
20260507215020 92 261 3.0 12.0 0.00 0.00 0.00 44 1011.9
20260507214544 92 250 7.0 12.0 0.00 0.00 0.00 42 1011.9